Year,Month,Day,Hour,Minute,Value (Times are PST for temperature in C)
2021,06,25,00,00,18.20
2021,06,25,00,01,18.20
2021,06,25,00,02,18.20
2021,06,25,00,03,18.20
2021,06,25,00,04,18.20
2021,06,25,00,05,18.20
2021,06,25,00,06,18.20
2021,06,25,00,07,18.20
2021,06,25,00,08,18.10
2021,06,25,00,09,18.10
2021,06,25,00,10,18.10
2021,06,25,00,11,18.10
2021,06,25,00,12,18.10
2021,06,25,00,13,18.10
2021,06,25,00,14,18.10
2021,06,25,00,15,18.10
2021,06,25,00,16,18.10
2021,06,25,00,17,18.00
2021,06,25,00,18,18.00
2021,06,25,00,19,18.00
2021,06,25,00,20,18.00
2021,06,25,00,21,18.00
2021,06,25,00,22,18.00
2021,06,25,00,23,18.00
2021,06,25,00,24,18.00
2021,06,25,00,25,18.00
2021,06,25,00,26,17.90
2021,06,25,00,27,17.90
2021,06,25,00,28,17.90
2021,06,25,00,29,17.90
2021,06,25,00,30,17.90
2021,06,25,00,31,17.90
2021,06,25,00,32,17.90
2021,06,25,00,33,17.90
2021,06,25,00,34,17.80
2021,06,25,00,35,17.80
2021,06,25,00,36,17.80
2021,06,25,00,37,17.80
2021,06,25,00,38,17.80
2021,06,25,00,39,17.80
2021,06,25,00,40,17.80
2021,06,25,00,41,17.80
2021,06,25,00,42,17.80
2021,06,25,00,43,17.80
2021,06,25,00,44,17.80
2021,06,25,00,45,17.80
2021,06,25,00,46,17.80
2021,06,25,00,47,17.80
2021,06,25,00,48,17.80
2021,06,25,00,49,17.80
2021,06,25,00,50,17.80
2021,06,25,00,51,17.80
2021,06,25,00,52,17.80
2021,06,25,00,53,17.80
2021,06,25,00,54,17.80
2021,06,25,00,55,17.80
2021,06,25,00,56,17.80
2021,06,25,00,57,17.80
2021,06,25,00,58,17.80
2021,06,25,00,59,17.80
2021,06,25,01,00,17.80
2021,06,25,01,01,17.80
2021,06,25,01,02,17.80
2021,06,25,01,03,17.80
2021,06,25,01,04,17.80
2021,06,25,01,05,17.80
2021,06,25,01,06,17.80
2021,06,25,01,07,17.80
2021,06,25,01,08,17.80
2021,06,25,01,09,17.80
2021,06,25,01,10,17.80
2021,06,25,01,11,17.80
2021,06,25,01,12,17.80
2021,06,25,01,13,17.80
2021,06,25,01,14,17.80
2021,06,25,01,15,17.80
2021,06,25,01,16,17.80
2021,06,25,01,17,17.80
2021,06,25,01,18,17.80
2021,06,25,01,19,17.80
2021,06,25,01,20,17.80
2021,06,25,01,21,17.80
2021,06,25,01,22,17.90
2021,06,25,01,23,17.90
2021,06,25,01,24,17.90
2021,06,25,01,25,17.90
2021,06,25,01,26,17.90
2021,06,25,01,27,17.90
2021,06,25,01,28,17.90
2021,06,25,01,29,17.90
2021,06,25,01,30,17.90
2021,06,25,01,31,17.90
2021,06,25,01,32,17.90
2021,06,25,01,33,17.90
2021,06,25,01,34,17.90
2021,06,25,01,35,17.90
2021,06,25,01,36,17.90
2021,06,25,01,37,17.90
2021,06,25,01,38,17.90
2021,06,25,01,39,17.90
2021,06,25,01,40,17.90
2021,06,25,01,41,18.00
2021,06,25,01,42,18.00
2021,06,25,01,43,18.00
2021,06,25,01,44,18.00
2021,06,25,01,45,18.00
2021,06,25,01,46,18.00
2021,06,25,01,47,18.00
2021,06,25,01,48,17.90
2021,06,25,01,49,17.90
2021,06,25,01,50,17.90
2021,06,25,01,51,17.90
2021,06,25,01,52,17.90
2021,06,25,01,53,17.90
2021,06,25,01,54,17.90
2021,06,25,01,55,17.90
2021,06,25,01,56,17.90
2021,06,25,01,57,17.80
2021,06,25,01,58,17.90
2021,06,25,01,59,17.80
2021,06,25,02,00,17.80
2021,06,25,02,01,17.80
2021,06,25,02,02,17.80
2021,06,25,02,03,17.80
2021,06,25,02,04,17.90
2021,06,25,02,05,17.90
2021,06,25,02,06,17.90
2021,06,25,02,07,17.90
2021,06,25,02,08,17.90
2021,06,25,02,09,17.90
2021,06,25,02,10,17.90
2021,06,25,02,11,17.90
2021,06,25,02,12,17.90
2021,06,25,02,13,17.90
2021,06,25,02,14,17.90
2021,06,25,02,15,17.90
2021,06,25,02,16,17.90
2021,06,25,02,17,17.90
2021,06,25,02,18,17.90
2021,06,25,02,19,17.90
2021,06,25,02,20,17.90
2021,06,25,02,21,17.90
2021,06,25,02,22,17.90
2021,06,25,02,23,17.90
2021,06,25,02,24,17.90
2021,06,25,02,25,17.80
2021,06,25,02,26,17.80
2021,06,25,02,27,17.80
2021,06,25,02,28,17.80
2021,06,25,02,29,17.80
2021,06,25,02,30,17.70
2021,06,25,02,31,17.70
2021,06,25,02,32,17.70
2021,06,25,02,33,17.70
2021,06,25,02,34,17.70
2021,06,25,02,35,17.70
2021,06,25,02,36,17.70
2021,06,25,02,37,17.70
2021,06,25,02,38,17.70
2021,06,25,02,39,17.70
2021,06,25,02,40,17.60
2021,06,25,02,41,17.60
2021,06,25,02,42,17.60
2021,06,25,02,43,17.60
2021,06,25,02,44,17.60
2021,06,25,02,45,17.60
2021,06,25,02,46,17.60
2021,06,25,02,47,17.60
2021,06,25,02,48,17.50
2021,06,25,02,49,17.50
2021,06,25,02,50,17.50
2021,06,25,02,51,17.50
2021,06,25,02,52,17.60
2021,06,25,02,53,17.50
2021,06,25,02,54,17.60
2021,06,25,02,55,17.60
2021,06,25,02,56,17.60
2021,06,25,02,57,17.50
2021,06,25,02,58,17.50
2021,06,25,02,59,17.50
2021,06,25,03,00,17.50
2021,06,25,03,01,17.50
2021,06,25,03,02,17.50
2021,06,25,03,03,17.40
2021,06,25,03,04,17.40
2021,06,25,03,05,17.40
2021,06,25,03,06,17.40
2021,06,25,03,07,17.40
2021,06,25,03,08,17.40
2021,06,25,03,09,17.40
2021,06,25,03,10,17.40
2021,06,25,03,11,17.40
2021,06,25,03,12,17.40
2021,06,25,03,13,17.40
2021,06,25,03,14,17.40
2021,06,25,03,15,17.40
2021,06,25,03,16,17.40
2021,06,25,03,17,17.40
2021,06,25,03,18,17.40
2021,06,25,03,19,17.40
2021,06,25,03,20,17.40
2021,06,25,03,21,17.40
2021,06,25,03,22,17.40
2021,06,25,03,23,17.40
2021,06,25,03,24,17.40
2021,06,25,03,25,17.40
2021,06,25,03,26,17.40
2021,06,25,03,27,17.40
2021,06,25,03,28,17.40
2021,06,25,03,29,17.40
2021,06,25,03,30,17.40
2021,06,25,03,31,17.40
2021,06,25,03,32,17.40
2021,06,25,03,33,17.40
2021,06,25,03,34,17.30
2021,06,25,03,35,17.30
2021,06,25,03,36,17.30
2021,06,25,03,37,17.30
2021,06,25,03,38,17.20
2021,06,25,03,39,17.20
2021,06,25,03,40,17.20
2021,06,25,03,41,17.20
2021,06,25,03,42,17.20
2021,06,25,03,43,17.20
2021,06,25,03,44,17.20
2021,06,25,03,45,17.10
2021,06,25,03,46,17.10
2021,06,25,03,47,17.10
2021,06,25,03,48,17.10
2021,06,25,03,49,17.10
2021,06,25,03,50,17.10
2021,06,25,03,51,17.10
2021,06,25,03,52,17.00
2021,06,25,03,53,17.00
2021,06,25,03,54,17.00
2021,06,25,03,55,17.00
2021,06,25,03,56,17.00
2021,06,25,03,57,16.90
2021,06,25,03,58,16.90
2021,06,25,03,59,16.90
2021,06,25,04,00,16.90
2021,06,25,04,01,16.90
2021,06,25,04,02,16.90
2021,06,25,04,03,16.90
2021,06,25,04,04,16.90
2021,06,25,04,05,16.80
2021,06,25,04,06,16.80
2021,06,25,04,07,16.80
2021,06,25,04,08,16.80
2021,06,25,04,09,16.80
2021,06,25,04,10,16.80
2021,06,25,04,11,16.80
2021,06,25,04,12,16.80
2021,06,25,04,13,16.80
2021,06,25,04,14,16.80
2021,06,25,04,15,16.80
2021,06,25,04,16,16.70
2021,06,25,04,17,16.70
2021,06,25,04,18,16.70
2021,06,25,04,19,16.70
2021,06,25,04,20,16.70
2021,06,25,04,21,16.70
2021,06,25,04,22,16.70
2021,06,25,04,23,16.70
2021,06,25,04,24,16.70
2021,06,25,04,25,16.60
2021,06,25,04,26,16.60
2021,06,25,04,27,16.60
2021,06,25,04,28,16.60
2021,06,25,04,29,16.60
2021,06,25,04,30,16.60
2021,06,25,04,31,16.60
2021,06,25,04,32,16.60
2021,06,25,04,33,16.60
2021,06,25,04,34,16.60
2021,06,25,04,35,16.70
2021,06,25,04,36,16.70
2021,06,25,04,37,16.70
2021,06,25,04,38,16.70
2021,06,25,04,39,16.70
2021,06,25,04,40,16.70
2021,06,25,04,41,16.70
2021,06,25,04,42,16.70
2021,06,25,04,43,16.70
2021,06,25,04,44,16.70
2021,06,25,04,45,16.70
2021,06,25,04,46,16.70
2021,06,25,04,47,16.70
2021,06,25,04,48,16.70
2021,06,25,04,49,16.60
2021,06,25,04,50,16.60
2021,06,25,04,51,16.60
2021,06,25,04,52,16.50
2021,06,25,04,53,16.50
2021,06,25,04,54,16.50
2021,06,25,04,55,16.40
2021,06,25,04,56,16.40
2021,06,25,04,57,16.40
2021,06,25,04,58,16.40
2021,06,25,04,59,16.40
2021,06,25,05,00,16.40
2021,06,25,05,01,16.40
2021,06,25,05,02,16.40
2021,06,25,05,03,16.40
2021,06,25,05,04,16.40
2021,06,25,05,05,16.40
2021,06,25,05,06,16.40
2021,06,25,05,07,16.40
2021,06,25,05,08,16.30
2021,06,25,05,09,16.30
2021,06,25,05,10,16.40
2021,06,25,05,11,16.40
2021,06,25,05,12,16.40
2021,06,25,05,13,16.40
2021,06,25,05,14,16.40
2021,06,25,05,15,16.40
2021,06,25,05,16,16.40
2021,06,25,05,17,16.40
2021,06,25,05,18,16.40
2021,06,25,05,19,16.40
2021,06,25,05,20,16.40
2021,06,25,05,21,16.40
2021,06,25,05,22,16.40
2021,06,25,05,23,16.40
2021,06,25,05,24,16.40
2021,06,25,05,25,16.40
2021,06,25,05,26,16.40
2021,06,25,05,27,16.40
2021,06,25,05,28,16.40
2021,06,25,05,29,16.40
2021,06,25,05,30,16.40
2021,06,25,05,31,16.40
2021,06,25,05,32,16.40
2021,06,25,05,33,16.40
2021,06,25,05,34,16.40
2021,06,25,05,35,16.40
2021,06,25,05,36,16.40
2021,06,25,05,37,16.40
2021,06,25,05,38,16.40
2021,06,25,05,39,16.40
2021,06,25,05,40,16.40
2021,06,25,05,41,16.40
2021,06,25,05,42,16.40
2021,06,25,05,43,16.40
2021,06,25,05,44,16.40
2021,06,25,05,45,16.40
2021,06,25,05,46,16.30
2021,06,25,05,47,16.30
2021,06,25,05,48,16.30
2021,06,25,05,49,16.30
2021,06,25,05,50,16.30
2021,06,25,05,51,16.30
2021,06,25,05,52,16.30
2021,06,25,05,53,16.30
2021,06,25,05,54,16.30
2021,06,25,05,55,16.30
2021,06,25,05,56,16.30
2021,06,25,05,57,16.30
2021,06,25,05,58,16.30
2021,06,25,05,59,16.30
2021,06,25,06,00,16.30
2021,06,25,06,01,16.30
2021,06,25,06,02,16.30
2021,06,25,06,03,16.30
2021,06,25,06,04,16.20
2021,06,25,06,05,16.20
2021,06,25,06,06,16.20
2021,06,25,06,07,16.20
2021,06,25,06,08,16.20
2021,06,25,06,09,16.20
2021,06,25,06,10,16.20
2021,06,25,06,11,16.20
2021,06,25,06,12,16.20
2021,06,25,06,13,16.20
2021,06,25,06,14,16.10
2021,06,25,06,15,16.00
2021,06,25,06,16,16.00
2021,06,25,06,17,15.90
2021,06,25,06,18,15.90
2021,06,25,06,19,15.80
2021,06,25,06,20,15.80
2021,06,25,06,21,15.80
2021,06,25,06,22,15.70
2021,06,25,06,23,15.70
2021,06,25,06,24,15.70
2021,06,25,06,25,15.70
2021,06,25,06,26,15.70
2021,06,25,06,27,15.70
2021,06,25,06,28,15.70
2021,06,25,06,29,15.80
2021,06,25,06,30,15.80
2021,06,25,06,31,15.90
2021,06,25,06,32,15.90
2021,06,25,06,33,16.00
2021,06,25,06,34,16.00
2021,06,25,06,35,16.10
2021,06,25,06,36,16.10
2021,06,25,06,37,16.10
2021,06,25,06,38,16.20
2021,06,25,06,39,16.20
2021,06,25,06,40,16.20
2021,06,25,06,41,16.30
2021,06,25,06,42,16.30
2021,06,25,06,43,16.30
2021,06,25,06,44,16.30
2021,06,25,06,45,16.40
2021,06,25,06,46,16.40
2021,06,25,06,47,16.40
2021,06,25,06,48,16.50
2021,06,25,06,49,16.60
2021,06,25,06,50,16.60
2021,06,25,06,51,16.70
2021,06,25,06,52,16.80
2021,06,25,06,53,16.90
2021,06,25,06,54,17.00
2021,06,25,06,55,17.10
2021,06,25,06,56,17.20
2021,06,25,06,57,17.20
2021,06,25,06,58,17.40
2021,06,25,06,59,17.50
2021,06,25,07,00,17.60
2021,06,25,07,01,17.70
2021,06,25,07,02,17.70
2021,06,25,07,03,17.80
2021,06,25,07,04,17.90
2021,06,25,07,05,18.00
2021,06,25,07,06,18.10
2021,06,25,07,07,18.30
2021,06,25,07,08,18.40
2021,06,25,07,09,18.50
2021,06,25,07,10,18.60
2021,06,25,07,11,18.70
2021,06,25,07,12,18.70
2021,06,25,07,13,18.80
2021,06,25,07,14,18.80
2021,06,25,07,15,18.90
2021,06,25,07,16,18.90
2021,06,25,07,17,18.90
2021,06,25,07,18,19.00
2021,06,25,07,19,19.00
2021,06,25,07,20,19.10
2021,06,25,07,21,19.10
2021,06,25,07,22,19.20
2021,06,25,07,23,19.20
2021,06,25,07,24,19.20
2021,06,25,07,25,19.30
2021,06,25,07,26,19.40
2021,06,25,07,27,19.50
2021,06,25,07,28,19.60
2021,06,25,07,29,19.70
2021,06,25,07,30,19.70
2021,06,25,07,31,19.70
2021,06,25,07,32,19.60
2021,06,25,07,33,19.60
2021,06,25,07,34,19.50
2021,06,25,07,35,19.50
2021,06,25,07,36,19.40
2021,06,25,07,37,19.40
2021,06,25,07,38,19.40
2021,06,25,07,39,19.40
2021,06,25,07,40,19.40
2021,06,25,07,41,19.50
2021,06,25,07,42,19.50
2021,06,25,07,43,19.50
2021,06,25,07,44,19.60
2021,06,25,07,45,19.70
2021,06,25,07,46,19.70
2021,06,25,07,47,19.80
2021,06,25,07,48,19.90
2021,06,25,07,49,19.90
2021,06,25,07,50,19.90
2021,06,25,07,51,19.90
2021,06,25,07,52,20.00
2021,06,25,07,53,20.00
2021,06,25,07,54,20.10
2021,06,25,07,55,20.10
2021,06,25,07,56,20.10
2021,06,25,07,57,20.10
2021,06,25,07,58,20.10
2021,06,25,07,59,20.10
2021,06,25,08,00,20.10
2021,06,25,08,01,20.10
2021,06,25,08,02,20.10
2021,06,25,08,03,20.10
2021,06,25,08,04,20.10
2021,06,25,08,05,20.10
2021,06,25,08,06,20.10
2021,06,25,08,07,20.10
2021,06,25,08,08,20.20
2021,06,25,08,09,20.20
2021,06,25,08,10,20.20
2021,06,25,08,11,20.30
2021,06,25,08,12,20.30
2021,06,25,08,13,20.40
2021,06,25,08,14,20.50
2021,06,25,08,15,20.60
2021,06,25,08,16,20.60
2021,06,25,08,17,20.60
2021,06,25,08,18,20.60
2021,06,25,08,19,20.60
2021,06,25,08,20,20.60
2021,06,25,08,21,20.60
2021,06,25,08,22,20.60
2021,06,25,08,23,20.60
2021,06,25,08,24,20.60
2021,06,25,08,25,20.60
2021,06,25,08,26,20.60
2021,06,25,08,27,20.70
2021,06,25,08,28,20.70
2021,06,25,08,29,20.80
2021,06,25,08,30,20.80
2021,06,25,08,31,20.90
2021,06,25,08,32,21.00
2021,06,25,08,33,21.10
2021,06,25,08,34,21.20
2021,06,25,08,35,21.20
2021,06,25,08,36,21.20
2021,06,25,08,37,21.20
2021,06,25,08,38,21.20
2021,06,25,08,39,21.20
2021,06,25,08,40,21.20
2021,06,25,08,41,21.20
2021,06,25,08,42,21.30
2021,06,25,08,43,21.30
2021,06,25,08,44,21.40
2021,06,25,08,45,21.50
2021,06,25,08,46,21.60
2021,06,25,08,47,21.60
2021,06,25,08,48,21.70
2021,06,25,08,49,21.80
2021,06,25,08,50,21.80
2021,06,25,08,51,21.90
2021,06,25,08,52,21.90
2021,06,25,08,53,22.00
2021,06,25,08,54,22.00
2021,06,25,08,55,22.10
2021,06,25,08,56,22.20
2021,06,25,08,57,22.20
2021,06,25,08,58,22.30
2021,06,25,08,59,22.40
2021,06,25,09,00,22.50
2021,06,25,09,01,22.60
2021,06,25,09,02,22.70
2021,06,25,09,03,22.80
2021,06,25,09,04,22.80
2021,06,25,09,05,22.90
2021,06,25,09,06,23.00
2021,06,25,09,07,23.10
2021,06,25,09,08,23.30
2021,06,25,09,09,23.40
2021,06,25,09,10,23.50
2021,06,25,09,11,23.70
2021,06,25,09,12,23.80
2021,06,25,09,13,24.00
2021,06,25,09,14,24.10
2021,06,25,09,15,24.20
2021,06,25,09,16,24.30
2021,06,25,09,17,24.40
2021,06,25,09,18,24.40
2021,06,25,09,19,24.40
2021,06,25,09,20,24.50
2021,06,25,09,21,24.50
2021,06,25,09,22,24.60
2021,06,25,09,23,24.70
2021,06,25,09,24,24.80
2021,06,25,09,25,24.90
2021,06,25,09,26,24.90
2021,06,25,09,27,24.90
2021,06,25,09,28,24.90
2021,06,25,09,29,24.90
2021,06,25,09,30,24.90
2021,06,25,09,31,24.90
2021,06,25,09,32,24.90
2021,06,25,09,33,24.90
2021,06,25,09,34,24.90
2021,06,25,09,35,24.90
2021,06,25,09,36,25.00
2021,06,25,09,37,25.10
2021,06,25,09,38,25.10
2021,06,25,09,39,25.10
2021,06,25,09,40,25.20
2021,06,25,09,41,25.20
2021,06,25,09,42,25.20
2021,06,25,09,43,25.10
2021,06,25,09,44,25.20
2021,06,25,09,45,25.20
2021,06,25,09,46,25.30
2021,06,25,09,47,25.30
2021,06,25,09,48,25.30
2021,06,25,09,49,25.30
2021,06,25,09,50,25.30
2021,06,25,09,51,25.40
2021,06,25,09,52,25.40
2021,06,25,09,53,25.40
2021,06,25,09,54,25.40
2021,06,25,09,55,25.40
2021,06,25,09,56,25.30
2021,06,25,09,57,25.10
2021,06,25,09,58,25.00
2021,06,25,09,59,25.00
2021,06,25,10,00,24.90
2021,06,25,10,01,24.90
2021,06,25,10,02,25.00
2021,06,25,10,03,25.10
2021,06,25,10,04,25.20
2021,06,25,10,05,25.30
2021,06,25,10,06,25.30
2021,06,25,10,07,25.40
2021,06,25,10,08,25.50
2021,06,25,10,09,25.50
2021,06,25,10,10,25.50
2021,06,25,10,11,25.40
2021,06,25,10,12,25.30
2021,06,25,10,13,25.30
2021,06,25,10,14,25.20
2021,06,25,10,15,25.20
2021,06,25,10,16,25.10
2021,06,25,10,17,25.20
2021,06,25,10,18,25.10
2021,06,25,10,19,25.10
2021,06,25,10,20,25.10
2021,06,25,10,21,25.20
2021,06,25,10,22,25.30
2021,06,25,10,23,25.40
2021,06,25,10,24,25.60
2021,06,25,10,25,25.80
2021,06,25,10,26,26.00
2021,06,25,10,27,26.20
2021,06,25,10,28,26.30
2021,06,25,10,29,26.40
2021,06,25,10,30,26.60
2021,06,25,10,31,26.70
2021,06,25,10,32,26.80
2021,06,25,10,33,26.90
2021,06,25,10,34,26.90
2021,06,25,10,35,26.80
2021,06,25,10,36,26.60
2021,06,25,10,37,26.60
2021,06,25,10,38,26.60
2021,06,25,10,39,26.60
2021,06,25,10,40,26.60
2021,06,25,10,41,26.60
2021,06,25,10,42,26.60
2021,06,25,10,43,26.50
2021,06,25,10,44,26.50
2021,06,25,10,45,26.40
2021,06,25,10,46,26.30
2021,06,25,10,47,26.30
2021,06,25,10,48,26.40
2021,06,25,10,49,26.50
2021,06,25,10,50,26.70
2021,06,25,10,51,26.70
2021,06,25,10,52,26.80
2021,06,25,10,53,26.80
2021,06,25,10,54,26.90
2021,06,25,10,55,26.90
2021,06,25,10,56,26.90
2021,06,25,10,57,26.90
2021,06,25,10,58,26.90
2021,06,25,10,59,26.90
2021,06,25,11,00,26.90
2021,06,25,11,01,26.90
2021,06,25,11,02,26.90
2021,06,25,11,03,26.90
2021,06,25,11,04,27.00
2021,06,25,11,05,27.00
2021,06,25,11,06,27.10
2021,06,25,11,07,27.20
2021,06,25,11,08,27.40
2021,06,25,11,09,27.50
2021,06,25,11,10,27.60
2021,06,25,11,11,27.60
2021,06,25,11,12,27.50
2021,06,25,11,13,27.40
2021,06,25,11,14,27.30
2021,06,25,11,15,27.40
2021,06,25,11,16,27.40
2021,06,25,11,17,27.40
2021,06,25,11,18,27.50
2021,06,25,11,19,27.50
2021,06,25,11,20,27.60
2021,06,25,11,21,27.70
2021,06,25,11,22,27.70
2021,06,25,11,23,27.70
2021,06,25,11,24,27.70
2021,06,25,11,25,27.70
2021,06,25,11,26,27.60
2021,06,25,11,27,27.50
2021,06,25,11,28,27.50
2021,06,25,11,29,27.60
2021,06,25,11,30,27.70
2021,06,25,11,31,27.80
2021,06,25,11,32,27.90
2021,06,25,11,33,27.90
2021,06,25,11,34,27.90
2021,06,25,11,35,27.90
2021,06,25,11,36,27.80
2021,06,25,11,37,27.70
2021,06,25,11,38,27.80
2021,06,25,11,39,27.80
2021,06,25,11,40,27.90
2021,06,25,11,41,28.00
2021,06,25,11,42,28.10
2021,06,25,11,43,28.20
2021,06,25,11,44,28.30
2021,06,25,11,45,28.40
2021,06,25,11,46,28.40
2021,06,25,11,47,28.50
2021,06,25,11,48,28.50
2021,06,25,11,49,28.50
2021,06,25,11,50,28.60
2021,06,25,11,51,28.70
2021,06,25,11,52,28.70
2021,06,25,11,53,28.80
2021,06,25,11,54,28.90
2021,06,25,11,55,28.90
2021,06,25,11,56,29.00
2021,06,25,11,57,28.90
2021,06,25,11,58,28.80
2021,06,25,11,59,28.80
2021,06,25,12,00,28.90
2021,06,25,12,01,29.00
2021,06,25,12,02,29.00
2021,06,25,12,03,29.10
2021,06,25,12,04,29.10
2021,06,25,12,05,29.10
2021,06,25,12,06,29.10
2021,06,25,12,07,29.00
2021,06,25,12,08,28.90
2021,06,25,12,09,28.80
2021,06,25,12,10,28.70
2021,06,25,12,11,28.60
2021,06,25,12,12,28.50
2021,06,25,12,13,28.40
2021,06,25,12,14,28.50
2021,06,25,12,15,28.60
2021,06,25,12,16,28.80
2021,06,25,12,17,28.80
2021,06,25,12,18,28.80
2021,06,25,12,19,28.80
2021,06,25,12,20,28.70
2021,06,25,12,21,28.50
2021,06,25,12,22,28.20
2021,06,25,12,23,28.00
2021,06,25,12,24,27.80
2021,06,25,12,25,27.70
2021,06,25,12,26,27.70
2021,06,25,12,27,27.60
2021,06,25,12,28,27.60
2021,06,25,12,29,27.60
2021,06,25,12,30,27.70
2021,06,25,12,31,27.80
2021,06,25,12,32,27.90
2021,06,25,12,33,27.80
2021,06,25,12,34,27.70
2021,06,25,12,35,27.60
2021,06,25,12,36,27.60
2021,06,25,12,37,27.70
2021,06,25,12,38,27.60
2021,06,25,12,39,27.40
2021,06,25,12,40,27.10
2021,06,25,12,41,26.80
2021,06,25,12,42,26.50
2021,06,25,12,43,26.30
2021,06,25,12,44,26.10
2021,06,25,12,45,26.10
2021,06,25,12,46,26.20
2021,06,25,12,47,26.30
2021,06,25,12,48,26.30
2021,06,25,12,49,26.40
2021,06,25,12,50,26.50
2021,06,25,12,51,26.60
2021,06,25,12,52,26.70
2021,06,25,12,53,26.70
2021,06,25,12,54,26.70
2021,06,25,12,55,26.80
2021,06,25,12,56,26.90
2021,06,25,12,57,27.10
2021,06,25,12,58,27.20
2021,06,25,12,59,27.20
2021,06,25,13,00,27.30
2021,06,25,13,01,27.40
2021,06,25,13,02,27.50
2021,06,25,13,03,27.60
2021,06,25,13,04,27.60
2021,06,25,13,05,27.60
2021,06,25,13,06,27.50
2021,06,25,13,07,27.40
2021,06,25,13,08,27.30
2021,06,25,13,09,27.30
2021,06,25,13,10,27.20
2021,06,25,13,11,27.10
2021,06,25,13,12,27.10
2021,06,25,13,13,27.10
2021,06,25,13,14,27.10
2021,06,25,13,15,27.10
2021,06,25,13,16,27.10
2021,06,25,13,17,27.00
2021,06,25,13,18,27.10
2021,06,25,13,19,27.10
2021,06,25,13,20,27.00
2021,06,25,13,21,27.00
2021,06,25,13,22,27.10
2021,06,25,13,23,27.20
2021,06,25,13,24,27.20
2021,06,25,13,25,27.30
2021,06,25,13,26,27.30
2021,06,25,13,27,27.40
2021,06,25,13,28,27.50
2021,06,25,13,29,27.50
2021,06,25,13,30,27.70
2021,06,25,13,31,27.80
2021,06,25,13,32,27.90
2021,06,25,13,33,28.00
2021,06,25,13,34,27.90
2021,06,25,13,35,27.80
2021,06,25,13,36,27.70
2021,06,25,13,37,27.70
2021,06,25,13,38,27.80
2021,06,25,13,39,27.90
2021,06,25,13,40,27.90
2021,06,25,13,41,27.90
2021,06,25,13,42,27.90
2021,06,25,13,43,27.90
2021,06,25,13,44,28.10
2021,06,25,13,45,28.20
2021,06,25,13,46,28.30
2021,06,25,13,47,28.40
2021,06,25,13,48,28.60
2021,06,25,13,49,28.70
2021,06,25,13,50,28.70
2021,06,25,13,51,28.80
2021,06,25,13,52,28.90
2021,06,25,13,53,29.00
2021,06,25,13,54,29.10
2021,06,25,13,55,29.10
2021,06,25,13,56,29.10
2021,06,25,13,57,29.00
2021,06,25,13,58,29.10
2021,06,25,13,59,29.00
2021,06,25,14,00,29.00
2021,06,25,14,01,29.10
2021,06,25,14,02,29.10
2021,06,25,14,03,29.20
2021,06,25,14,04,29.30
2021,06,25,14,05,29.40
2021,06,25,14,06,29.50
2021,06,25,14,07,29.60
2021,06,25,14,08,29.70
2021,06,25,14,09,29.80
2021,06,25,14,10,29.80
2021,06,25,14,11,29.80
2021,06,25,14,12,29.90
2021,06,25,14,13,29.90
2021,06,25,14,14,29.90
2021,06,25,14,15,29.80
2021,06,25,14,16,29.60
2021,06,25,14,17,29.60
2021,06,25,14,18,29.70
2021,06,25,14,19,29.60
2021,06,25,14,20,29.60
2021,06,25,14,21,29.60
2021,06,25,14,22,29.70
2021,06,25,14,23,29.80
2021,06,25,14,24,30.00
2021,06,25,14,25,29.80
2021,06,25,14,26,29.50
2021,06,25,14,27,29.10
2021,06,25,14,28,28.70
2021,06,25,14,29,28.50
2021,06,25,14,30,28.20
2021,06,25,14,31,28.10
2021,06,25,14,32,28.00
2021,06,25,14,33,28.10
2021,06,25,14,34,28.10
2021,06,25,14,35,28.20
2021,06,25,14,36,28.30
2021,06,25,14,37,28.40
2021,06,25,14,38,28.40
2021,06,25,14,39,28.50
2021,06,25,14,40,28.50
2021,06,25,14,41,28.60
2021,06,25,14,42,28.50
2021,06,25,14,43,28.40
2021,06,25,14,44,28.30
2021,06,25,14,45,28.20
2021,06,25,14,46,28.10
2021,06,25,14,47,28.00
2021,06,25,14,48,27.90
2021,06,25,14,49,27.90
2021,06,25,14,50,27.90
2021,06,25,14,51,27.90
2021,06,25,14,52,27.90
2021,06,25,14,53,28.00
2021,06,25,14,54,28.00
2021,06,25,14,55,27.90
2021,06,25,14,56,27.80
2021,06,25,14,57,27.80
2021,06,25,14,58,27.80
2021,06,25,14,59,27.70
2021,06,25,15,00,27.70
2021,06,25,15,01,27.70
2021,06,25,15,02,27.80
2021,06,25,15,03,27.70
2021,06,25,15,04,27.70
2021,06,25,15,05,27.80
2021,06,25,15,06,27.80
2021,06,25,15,07,27.90
2021,06,25,15,08,28.10
2021,06,25,15,09,28.20
2021,06,25,15,10,28.30
2021,06,25,15,11,28.40
2021,06,25,15,12,28.40
2021,06,25,15,13,28.50
2021,06,25,15,14,28.60
2021,06,25,15,15,28.70
2021,06,25,15,16,28.80
2021,06,25,15,17,29.00
2021,06,25,15,18,29.10
2021,06,25,15,19,29.20
2021,06,25,15,20,29.30
2021,06,25,15,21,29.30
2021,06,25,15,22,29.40
2021,06,25,15,23,29.40
2021,06,25,15,24,29.50
2021,06,25,15,25,29.50
2021,06,25,15,26,29.60
2021,06,25,15,27,29.60
2021,06,25,15,28,29.70
2021,06,25,15,29,29.60
2021,06,25,15,30,29.60
2021,06,25,15,31,29.60
2021,06,25,15,32,29.60
2021,06,25,15,33,29.50
2021,06,25,15,34,29.30
2021,06,25,15,35,29.20
2021,06,25,15,36,29.10
2021,06,25,15,37,29.10
2021,06,25,15,38,29.10
2021,06,25,15,39,29.30
2021,06,25,15,40,29.30
2021,06,25,15,41,29.40
2021,06,25,15,42,29.40
2021,06,25,15,43,29.40
2021,06,25,15,44,29.50
2021,06,25,15,45,29.60
2021,06,25,15,46,29.70
2021,06,25,15,47,29.80
2021,06,25,15,48,30.00
2021,06,25,15,49,30.10
2021,06,25,15,50,30.10
2021,06,25,15,51,29.90
2021,06,25,15,52,29.80
2021,06,25,15,53,29.70
2021,06,25,15,54,29.70
2021,06,25,15,55,29.60
2021,06,25,15,56,29.60
2021,06,25,15,57,29.70
2021,06,25,15,58,29.70
2021,06,25,15,59,29.80
2021,06,25,16,00,29.90
2021,06,25,16,01,30.00
2021,06,25,16,02,30.10
2021,06,25,16,03,30.10
2021,06,25,16,04,30.10
2021,06,25,16,05,30.10
2021,06,25,16,06,30.20
2021,06,25,16,07,30.20
2021,06,25,16,08,30.20
2021,06,25,16,09,30.20
2021,06,25,16,10,30.20
2021,06,25,16,11,30.20
2021,06,25,16,12,30.30
2021,06,25,16,13,30.30
2021,06,25,16,14,30.40
2021,06,25,16,15,30.50
2021,06,25,16,16,30.60
2021,06,25,16,17,30.80
2021,06,25,16,18,30.90
2021,06,25,16,19,31.00
2021,06,25,16,20,31.20
2021,06,25,16,21,31.30
2021,06,25,16,22,31.50
2021,06,25,16,23,31.60
2021,06,25,16,24,31.70
2021,06,25,16,25,31.80
2021,06,25,16,26,31.90
2021,06,25,16,27,32.10
2021,06,25,16,28,32.30
2021,06,25,16,29,32.40
2021,06,25,16,30,32.50
2021,06,25,16,31,32.50
2021,06,25,16,32,32.40
2021,06,25,16,33,32.20
2021,06,25,16,34,32.10
2021,06,25,16,35,31.90
2021,06,25,16,36,31.80
2021,06,25,16,37,31.70
2021,06,25,16,38,31.60
2021,06,25,16,39,31.60
2021,06,25,16,40,31.40
2021,06,25,16,41,31.30
2021,06,25,16,42,31.30
2021,06,25,16,43,31.30
2021,06,25,16,44,31.30
2021,06,25,16,45,31.30
2021,06,25,16,46,31.30
2021,06,25,16,47,31.40
2021,06,25,16,48,31.50
2021,06,25,16,49,31.50
2021,06,25,16,50,31.40
2021,06,25,16,51,31.30
2021,06,25,16,52,31.30
2021,06,25,16,53,31.30
2021,06,25,16,54,31.20
2021,06,25,16,55,31.30
2021,06,25,16,56,31.30
2021,06,25,16,57,31.40
2021,06,25,16,58,31.50
2021,06,25,16,59,31.70
2021,06,25,17,00,31.70
2021,06,25,17,01,31.80
2021,06,25,17,02,31.80
2021,06,25,17,03,31.90
2021,06,25,17,04,31.80
2021,06,25,17,05,31.80
2021,06,25,17,06,31.70
2021,06,25,17,07,31.60
2021,06,25,17,08,31.40
2021,06,25,17,09,31.30
2021,06,25,17,10,31.20
2021,06,25,17,11,31.10
2021,06,25,17,12,31.00
2021,06,25,17,13,30.90
2021,06,25,17,14,30.80
2021,06,25,17,15,30.90
2021,06,25,17,16,30.90
2021,06,25,17,17,30.90
2021,06,25,17,18,30.90
2021,06,25,17,19,30.90